Weather in Guanare

Venezuela     9°02′45″N   69°44′43″W
temp.,
°C
wind,
m/s
gust,
m/s
humid.,
%
clouds,
%
prec.,
mm/h
press.,
hPa
HPBL,
m
7 may, fri
fri723:00+23nnw118376 0.0 101317
02:00+22nnw118492 0.0 101112
05:00+21ne118899 0.3 101211
08:00+23n128880 1.1 1014151
11:00+22ne2496100 3.1 1015204
14:00+22nnw2496100 8.0 1013159
17:00+23nne1191100 0.0 101065
20:00+22nne119266 0.0 101215
8 may, sat
sat823:00+22nnw119320 0.0 101411
02:00+21wnw1193100 0.4 101212
05:00+21nnw119498 2.5 101211
08:00+22ene1197100 5.8 101569
11:00+22nw1297100 3.4 1015133
14:00+22w2396100 5.3 1013165
17:00+22nw1396100 1.8 1012121
20:00+22nnw1193100 1.9 101212
9 may, sun
sun923:00+22nnw119299 0.0 101411
02:00+22wnw0093100 0.1 101311
05:00+21ene1195100 0.1 101336
08:00+21nnw1399100 9.7 1015139
11:00+22nne2396100 4.1 1016188
14:00+22nnw1298100 10.8 1014131
17:00+23n2495100 1.1 1013161
20:00+22ne2294100 1.1 101447
10 may, mon
mon1023:00+22nne139798 0.0 1016117
02:00+21n129799 1.1 101471
05:00+21nne1396100 1.1 101378
08:00+22n139589 1.6 1015105
11:00+27ne127725 1.8 1015665
14:00+28e217584 5.1 1012829
17:00+23ene2293100 5.1 101144
20:00+23n119196 6.4 101313
11 may, tue
tue1123:00+23nne1294100 2.1 101534
02:00+22nw369791 8.3 1013184
05:00+22nw1194100 0.7 101313
08:00+22ne1399100 5.0 1015153
11:00+24nnw1392100 4.1 1016180
14:00+23n2496100 7.1 1014215
17:00+23nw1395100 1.3 1012136
20:00+22wnw1194100 1.4 101313